Year,Month,Day,Hour,Minute,Value (Times are PST for temperature in C)
2014,09,15,00,00,11.10
2014,09,15,00,01,11.10
2014,09,15,00,02,11.10
2014,09,15,00,03,11.10
2014,09,15,00,04,11.10
2014,09,15,00,05,11.10
2014,09,15,00,06,11.10
2014,09,15,00,07,11.10
2014,09,15,00,08,11.10
2014,09,15,00,09,11.20
2014,09,15,00,10,11.20
2014,09,15,00,11,11.20
2014,09,15,00,12,11.20
2014,09,15,00,13,11.20
2014,09,15,00,14,11.20
2014,09,15,00,15,11.10
2014,09,15,00,16,11.10
2014,09,15,00,17,11.10
2014,09,15,00,18,11.10
2014,09,15,00,19,11.10
2014,09,15,00,20,11.00
2014,09,15,00,21,11.00
2014,09,15,00,22,11.00
2014,09,15,00,23,11.00
2014,09,15,00,24,10.90
2014,09,15,00,25,10.90
2014,09,15,00,26,10.90
2014,09,15,00,27,10.90
2014,09,15,00,28,10.90
2014,09,15,00,29,10.90
2014,09,15,00,30,10.80
2014,09,15,00,31,10.80
2014,09,15,00,32,10.80
2014,09,15,00,33,10.80
2014,09,15,00,34,10.80
2014,09,15,00,35,10.80
2014,09,15,00,36,10.80
2014,09,15,00,37,10.80
2014,09,15,00,38,10.80
2014,09,15,00,39,10.70
2014,09,15,00,40,10.70
2014,09,15,00,41,10.70
2014,09,15,00,42,10.70
2014,09,15,00,43,10.70
2014,09,15,00,44,10.70
2014,09,15,00,45,10.70
2014,09,15,00,46,10.60
2014,09,15,00,47,10.60
2014,09,15,00,48,10.60
2014,09,15,00,49,10.60
2014,09,15,00,50,10.60
2014,09,15,00,51,10.60
2014,09,15,00,52,10.50
2014,09,15,00,53,10.50
2014,09,15,00,54,10.50
2014,09,15,00,55,10.50
2014,09,15,00,56,10.50
2014,09,15,00,57,10.40
2014,09,15,00,58,10.40
2014,09,15,00,59,10.40
2014,09,15,01,00,10.40
2014,09,15,01,01,10.40
2014,09,15,01,02,10.40
2014,09,15,01,03,10.40
2014,09,15,01,04,10.40
2014,09,15,01,05,10.40
2014,09,15,01,06,10.40
2014,09,15,01,07,10.40
2014,09,15,01,08,10.40
2014,09,15,01,09,10.40
2014,09,15,01,10,10.40
2014,09,15,01,11,10.30
2014,09,15,01,12,10.30
2014,09,15,01,13,10.30
2014,09,15,01,14,10.30
2014,09,15,01,15,10.30
2014,09,15,01,16,10.30
2014,09,15,01,17,10.30
2014,09,15,01,18,10.30
2014,09,15,01,19,10.30
2014,09,15,01,20,10.30
2014,09,15,01,21,10.20
2014,09,15,01,22,10.20
2014,09,15,01,23,10.20
2014,09,15,01,24,10.20
2014,09,15,01,25,10.20
2014,09,15,01,26,10.20
2014,09,15,01,27,10.20
2014,09,15,01,28,10.20
2014,09,15,01,29,10.20
2014,09,15,01,30,10.20
2014,09,15,01,31,10.20
2014,09,15,01,32,10.20
2014,09,15,01,33,10.20
2014,09,15,01,34,10.20
2014,09,15,01,35,10.10
2014,09,15,01,36,10.10
2014,09,15,01,37,10.10
2014,09,15,01,38,10.10
2014,09,15,01,39,10.10
2014,09,15,01,40,10.10
2014,09,15,01,41,10.10
2014,09,15,01,42,10.10
2014,09,15,01,43,10.10
2014,09,15,01,44,10.10
2014,09,15,01,45,10.10
2014,09,15,01,46,10.10
2014,09,15,01,47,10.10
2014,09,15,01,48,10.10
2014,09,15,01,49,10.10
2014,09,15,01,50,10.10
2014,09,15,01,51,10.10
2014,09,15,01,52,10.10
2014,09,15,01,53,10.10
2014,09,15,01,54,10.10
2014,09,15,01,55,10.00
2014,09,15,01,56,10.00
2014,09,15,01,57,10.00
2014,09,15,01,58,10.00
2014,09,15,01,59,10.00
2014,09,15,02,00,10.00
2014,09,15,02,01,10.00
2014,09,15,02,02,10.10
2014,09,15,02,03,10.10
2014,09,15,02,04,10.10
2014,09,15,02,05,10.10
2014,09,15,02,06,10.10
2014,09,15,02,07,10.00
2014,09,15,02,08,10.00
2014,09,15,02,09,10.00
2014,09,15,02,10,10.00
2014,09,15,02,11,9.90
2014,09,15,02,12,9.90
2014,09,15,02,13,9.90
2014,09,15,02,14,9.90
2014,09,15,02,15,9.80
2014,09,15,02,16,9.80
2014,09,15,02,17,9.80
2014,09,15,02,18,9.80
2014,09,15,02,19,9.80
2014,09,15,02,20,9.90
2014,09,15,02,21,9.90
2014,09,15,02,22,10.00
2014,09,15,02,23,10.10
2014,09,15,02,24,10.10
2014,09,15,02,25,10.10
2014,09,15,02,26,10.10
2014,09,15,02,27,10.10
2014,09,15,02,28,10.10
2014,09,15,02,29,10.10
2014,09,15,02,30,10.10
2014,09,15,02,31,10.10
2014,09,15,02,32,10.00
2014,09,15,02,33,10.00
2014,09,15,02,34,10.00
2014,09,15,02,35,9.90
2014,09,15,02,36,9.90
2014,09,15,02,37,9.90
2014,09,15,02,38,9.80
2014,09,15,02,39,9.80
2014,09,15,02,40,9.80
2014,09,15,02,41,9.80
2014,09,15,02,42,9.80
2014,09,15,02,43,9.80
2014,09,15,02,44,9.80
2014,09,15,02,45,9.80
2014,09,15,02,46,9.80
2014,09,15,02,47,9.80
2014,09,15,02,48,9.80
2014,09,15,02,49,9.70
2014,09,15,02,50,9.70
2014,09,15,02,51,9.70
2014,09,15,02,52,9.70
2014,09,15,02,53,9.70
2014,09,15,02,54,9.70
2014,09,15,02,55,9.60
2014,09,15,02,56,9.60
2014,09,15,02,57,9.60
2014,09,15,02,58,9.60
2014,09,15,02,59,9.60
2014,09,15,03,00,9.60
2014,09,15,03,01,9.60
2014,09,15,03,02,9.60
2014,09,15,03,03,9.70
2014,09,15,03,04,9.70
2014,09,15,03,05,9.70
2014,09,15,03,06,9.70
2014,09,15,03,07,9.70
2014,09,15,03,08,9.70
2014,09,15,03,09,9.70
2014,09,15,03,10,9.70
2014,09,15,03,11,9.80
2014,09,15,03,12,9.80
2014,09,15,03,13,9.80
2014,09,15,03,14,9.80
2014,09,15,03,15,9.70
2014,09,15,03,16,9.70
2014,09,15,03,17,9.70
2014,09,15,03,18,9.70
2014,09,15,03,19,9.60
2014,09,15,03,20,9.60
2014,09,15,03,21,9.60
2014,09,15,03,22,9.60
2014,09,15,03,23,9.50
2014,09,15,03,24,9.50
2014,09,15,03,25,9.50
2014,09,15,03,26,9.40
2014,09,15,03,27,9.40
2014,09,15,03,28,9.40
2014,09,15,03,29,9.40
2014,09,15,03,30,9.40
2014,09,15,03,31,9.40
2014,09,15,03,32,9.40
2014,09,15,03,33,9.40
2014,09,15,03,34,9.30
2014,09,15,03,35,9.30
2014,09,15,03,36,9.30
2014,09,15,03,37,9.30
2014,09,15,03,38,9.30
2014,09,15,03,39,9.30
2014,09,15,03,40,9.30
2014,09,15,03,41,9.30
2014,09,15,03,42,9.30
2014,09,15,03,43,9.30
2014,09,15,03,44,9.30
2014,09,15,03,45,9.30
2014,09,15,03,46,9.30
2014,09,15,03,47,9.30
2014,09,15,03,48,9.30
2014,09,15,03,49,9.30
2014,09,15,03,50,9.20
2014,09,15,03,51,9.20
2014,09,15,03,52,9.20
2014,09,15,03,53,9.20
2014,09,15,03,54,9.20
2014,09,15,03,55,9.20
2014,09,15,03,56,9.20
2014,09,15,03,57,9.20
2014,09,15,03,58,9.10
2014,09,15,03,59,9.10
2014,09,15,04,00,9.10
2014,09,15,04,01,9.10
2014,09,15,04,02,9.10
2014,09,15,04,03,9.10
2014,09,15,04,04,9.10
2014,09,15,04,05,9.10
2014,09,15,04,06,9.10
2014,09,15,04,07,9.10
2014,09,15,04,08,9.10
2014,09,15,04,09,9.10
2014,09,15,04,10,9.10
2014,09,15,04,11,9.10
2014,09,15,04,12,9.10
2014,09,15,04,13,9.10
2014,09,15,04,14,9.10
2014,09,15,04,15,9.10
2014,09,15,04,16,9.10
2014,09,15,04,17,9.10
2014,09,15,04,18,9.10
2014,09,15,04,19,9.10
2014,09,15,04,20,9.10
2014,09,15,04,21,9.10
2014,09,15,04,22,9.10
2014,09,15,04,23,9.10
2014,09,15,04,24,9.00
2014,09,15,04,25,9.10
2014,09,15,04,26,9.10
2014,09,15,04,27,9.10
2014,09,15,04,28,9.10
2014,09,15,04,29,9.10
2014,09,15,04,30,9.10
2014,09,15,04,31,9.20
2014,09,15,04,32,9.10
2014,09,15,04,33,9.10
2014,09,15,04,34,9.10
2014,09,15,04,35,9.10
2014,09,15,04,36,9.00
2014,09,15,04,37,9.00
2014,09,15,04,38,9.00
2014,09,15,04,39,8.90
2014,09,15,04,40,8.90
2014,09,15,04,41,8.90
2014,09,15,04,42,8.90
2014,09,15,04,43,8.90
2014,09,15,04,44,8.90
2014,09,15,04,45,8.80
2014,09,15,04,46,8.90
2014,09,15,04,47,8.90
2014,09,15,04,48,8.80
2014,09,15,04,49,8.80
2014,09,15,04,50,8.80
2014,09,15,04,51,8.80
2014,09,15,04,52,8.80
2014,09,15,04,53,8.80
2014,09,15,04,54,8.80
2014,09,15,04,55,8.80
2014,09,15,04,56,8.80
2014,09,15,04,57,8.80
2014,09,15,04,58,8.70
2014,09,15,04,59,8.70
2014,09,15,05,00,8.70
2014,09,15,05,01,8.70
2014,09,15,05,02,8.70
2014,09,15,05,03,8.70
2014,09,15,05,04,8.70
2014,09,15,05,05,8.80
2014,09,15,05,06,8.80
2014,09,15,05,07,8.80
2014,09,15,05,08,8.80
2014,09,15,05,09,8.80
2014,09,15,05,10,8.80
2014,09,15,05,11,8.80
2014,09,15,05,12,8.80
2014,09,15,05,13,8.70
2014,09,15,05,14,8.70
2014,09,15,05,15,8.70
2014,09,15,05,16,8.70
2014,09,15,05,17,8.70
2014,09,15,05,18,8.70
2014,09,15,05,19,8.70
2014,09,15,05,20,8.60
2014,09,15,05,21,8.60
2014,09,15,05,22,8.60
2014,09,15,05,23,8.60
2014,09,15,05,24,8.60
2014,09,15,05,25,8.60
2014,09,15,05,26,8.60
2014,09,15,05,27,8.60
2014,09,15,05,28,8.60
2014,09,15,05,29,8.50
2014,09,15,05,30,8.50
2014,09,15,05,31,8.50
2014,09,15,05,32,8.50
2014,09,15,05,33,8.50
2014,09,15,05,34,8.50
2014,09,15,05,35,8.50
2014,09,15,05,36,8.50
2014,09,15,05,37,8.50
2014,09,15,05,38,8.50
2014,09,15,05,39,8.60
2014,09,15,05,40,8.60
2014,09,15,05,41,8.60
2014,09,15,05,42,8.60
2014,09,15,05,43,8.60
2014,09,15,05,44,8.50
2014,09,15,05,45,8.50
2014,09,15,05,46,8.50
2014,09,15,05,47,8.50
2014,09,15,05,48,8.50
2014,09,15,05,49,8.50
2014,09,15,05,50,8.40
2014,09,15,05,51,8.40
2014,09,15,05,52,8.40
2014,09,15,05,53,8.40
2014,09,15,05,54,8.40
2014,09,15,05,55,8.40
2014,09,15,05,56,8.30
2014,09,15,05,57,8.30
2014,09,15,05,58,8.30
2014,09,15,05,59,8.30
2014,09,15,06,00,8.30
2014,09,15,06,01,8.30
2014,09,15,06,02,8.30
2014,09,15,06,03,8.30
2014,09,15,06,04,8.30
2014,09,15,06,05,8.20
2014,09,15,06,06,8.20
2014,09,15,06,07,8.20
2014,09,15,06,08,8.20
2014,09,15,06,09,8.20
2014,09,15,06,10,8.20
2014,09,15,06,11,8.20
2014,09,15,06,12,8.20
2014,09,15,06,13,8.20
2014,09,15,06,14,8.20
2014,09,15,06,15,8.20
2014,09,15,06,16,8.20
2014,09,15,06,17,8.20
2014,09,15,06,18,8.20
2014,09,15,06,19,8.20
2014,09,15,06,20,8.20
2014,09,15,06,21,8.20
2014,09,15,06,22,8.20
2014,09,15,06,23,8.10
2014,09,15,06,24,8.10
2014,09,15,06,25,8.10
2014,09,15,06,26,8.10
2014,09,15,06,27,8.10
2014,09,15,06,28,8.10
2014,09,15,06,29,8.10
2014,09,15,06,30,8.10
2014,09,15,06,31,8.10
2014,09,15,06,32,8.10
2014,09,15,06,33,8.10
2014,09,15,06,34,8.10
2014,09,15,06,35,8.10
2014,09,15,06,36,8.10
2014,09,15,06,37,8.10
2014,09,15,06,38,8.00
2014,09,15,06,39,8.00
2014,09,15,06,40,8.00
2014,09,15,06,41,8.00
2014,09,15,06,42,8.00
2014,09,15,06,43,8.00
2014,09,15,06,44,8.00
2014,09,15,06,45,8.00
2014,09,15,06,46,7.90
2014,09,15,06,47,7.90
2014,09,15,06,48,7.90
2014,09,15,06,49,7.90
2014,09,15,06,50,7.90
2014,09,15,06,51,7.90
2014,09,15,06,52,7.90
2014,09,15,06,53,7.90
2014,09,15,06,54,7.90
2014,09,15,06,55,7.90
2014,09,15,06,56,7.80
2014,09,15,06,57,7.80
2014,09,15,06,58,7.80
2014,09,15,06,59,7.80
2014,09,15,07,00,7.80
2014,09,15,07,01,7.80
2014,09,15,07,02,7.80
2014,09,15,07,03,7.80
2014,09,15,07,04,7.80
2014,09,15,07,05,7.80
2014,09,15,07,06,7.80
2014,09,15,07,07,7.80
2014,09,15,07,08,7.80
2014,09,15,07,09,7.80
2014,09,15,07,10,7.80
2014,09,15,07,11,7.80
2014,09,15,07,12,7.80
2014,09,15,07,13,7.80
2014,09,15,07,14,7.80
2014,09,15,07,15,7.80
2014,09,15,07,16,7.80
2014,09,15,07,17,7.80
2014,09,15,07,18,7.80
2014,09,15,07,19,7.80
2014,09,15,07,20,7.80
2014,09,15,07,21,7.80
2014,09,15,07,22,7.80
2014,09,15,07,23,7.80
2014,09,15,07,24,7.80
2014,09,15,07,25,7.80
2014,09,15,07,26,7.80
2014,09,15,07,27,7.80
2014,09,15,07,28,7.80
2014,09,15,07,29,7.80
2014,09,15,07,30,7.80
2014,09,15,07,31,7.70
2014,09,15,07,32,7.70
2014,09,15,07,33,7.70
2014,09,15,07,34,7.70
2014,09,15,07,35,7.70
2014,09,15,07,36,7.70
2014,09,15,07,37,7.70
2014,09,15,07,38,7.70
2014,09,15,07,39,7.70
2014,09,15,07,40,7.70
2014,09,15,07,41,7.70
2014,09,15,07,42,7.70
2014,09,15,07,43,7.70
2014,09,15,07,44,7.80
2014,09,15,07,45,7.80
2014,09,15,07,46,7.80
2014,09,15,07,47,7.80
2014,09,15,07,48,7.80
2014,09,15,07,49,7.80
2014,09,15,07,50,7.80
2014,09,15,07,51,7.80
2014,09,15,07,52,7.90
2014,09,15,07,53,7.90
2014,09,15,07,54,7.90
2014,09,15,07,55,7.90
2014,09,15,07,56,7.90
2014,09,15,07,57,7.90
2014,09,15,07,58,8.00
2014,09,15,07,59,8.00
2014,09,15,08,00,8.00
2014,09,15,08,01,8.10
2014,09,15,08,02,8.10
2014,09,15,08,03,8.10
2014,09,15,08,04,8.10
2014,09,15,08,05,8.20
2014,09,15,08,06,8.30
2014,09,15,08,07,8.30
2014,09,15,08,08,8.40
2014,09,15,08,09,8.50
2014,09,15,08,10,8.60
2014,09,15,08,11,8.70
2014,09,15,08,12,8.80
2014,09,15,08,13,8.90
2014,09,15,08,14,9.00
2014,09,15,08,15,9.10
2014,09,15,08,16,9.30
2014,09,15,08,17,9.40
2014,09,15,08,18,9.50
2014,09,15,08,19,9.70
2014,09,15,08,20,9.80
2014,09,15,08,21,9.90
2014,09,15,08,22,10.10
2014,09,15,08,23,10.20
2014,09,15,08,24,10.30
2014,09,15,08,25,10.40
2014,09,15,08,26,10.60
2014,09,15,08,27,10.70
2014,09,15,08,28,10.80
2014,09,15,08,29,10.90
2014,09,15,08,30,11.10
2014,09,15,08,31,11.20
2014,09,15,08,32,11.30
2014,09,15,08,33,11.40
2014,09,15,08,34,11.50
2014,09,15,08,35,11.60
2014,09,15,08,36,11.70
2014,09,15,08,37,11.80
2014,09,15,08,38,11.90
2014,09,15,08,39,12.00
2014,09,15,08,40,12.10
2014,09,15,08,41,12.20
2014,09,15,08,42,12.30
2014,09,15,08,43,12.30
2014,09,15,08,44,12.40
2014,09,15,08,45,12.60
2014,09,15,08,46,12.70
2014,09,15,08,47,12.80
2014,09,15,08,48,12.80
2014,09,15,08,49,12.90
2014,09,15,08,50,13.00
2014,09,15,08,51,13.00
2014,09,15,08,52,13.10
2014,09,15,08,53,13.30
2014,09,15,08,54,13.40
2014,09,15,08,55,13.50
2014,09,15,08,56,13.70
2014,09,15,08,57,13.70
2014,09,15,08,58,13.80
2014,09,15,08,59,13.90
2014,09,15,09,00,13.90
2014,09,15,09,01,13.90
2014,09,15,09,02,14.00
2014,09,15,09,03,14.00
2014,09,15,09,04,14.00
2014,09,15,09,05,14.00
2014,09,15,09,06,14.00
2014,09,15,09,07,14.00
2014,09,15,09,08,14.00
2014,09,15,09,09,14.10
2014,09,15,09,10,14.10
2014,09,15,09,11,14.00
2014,09,15,09,12,14.10
2014,09,15,09,13,14.10
2014,09,15,09,14,14.10
2014,09,15,09,15,14.10
2014,09,15,09,16,14.20
2014,09,15,09,17,14.20
2014,09,15,09,18,14.30
2014,09,15,09,19,14.30
2014,09,15,09,20,14.40
2014,09,15,09,21,14.50
2014,09,15,09,22,14.50
2014,09,15,09,23,14.60
2014,09,15,09,24,14.60
2014,09,15,09,25,14.70
2014,09,15,09,26,14.70
2014,09,15,09,27,14.80
2014,09,15,09,28,14.80
2014,09,15,09,29,14.90
2014,09,15,09,30,14.90
2014,09,15,09,31,15.00
2014,09,15,09,32,15.10
2014,09,15,09,33,15.10
2014,09,15,09,34,15.20
2014,09,15,09,35,15.30
2014,09,15,09,36,15.30
2014,09,15,09,37,15.40
2014,09,15,09,38,15.50
2014,09,15,09,39,15.50
2014,09,15,09,40,15.60
2014,09,15,09,41,15.70
2014,09,15,09,42,15.80
2014,09,15,09,43,15.80
2014,09,15,09,44,15.90
2014,09,15,09,45,16.00
2014,09,15,09,46,16.00
2014,09,15,09,47,16.10
2014,09,15,09,48,16.20
2014,09,15,09,49,16.20
2014,09,15,09,50,16.30
2014,09,15,09,51,16.30
2014,09,15,09,52,16.30
2014,09,15,09,53,16.30
2014,09,15,09,54,16.40
2014,09,15,09,55,16.40
2014,09,15,09,56,16.40
2014,09,15,09,57,16.50
2014,09,15,09,58,16.60
2014,09,15,09,59,16.70
2014,09,15,10,00,16.70
2014,09,15,10,01,16.80
2014,09,15,10,02,16.80
2014,09,15,10,03,16.90
2014,09,15,10,04,16.90
2014,09,15,10,05,17.00
2014,09,15,10,06,17.00
2014,09,15,10,07,17.10
2014,09,15,10,08,17.10
2014,09,15,10,09,17.20
2014,09,15,10,10,17.30
2014,09,15,10,11,17.30
2014,09,15,10,12,17.40
2014,09,15,10,13,17.50
2014,09,15,10,14,17.60
2014,09,15,10,15,17.70
2014,09,15,10,16,17.70
2014,09,15,10,17,17.80
2014,09,15,10,18,17.90
2014,09,15,10,19,17.90
2014,09,15,10,20,18.00
2014,09,15,10,21,18.10
2014,09,15,10,22,18.10
2014,09,15,10,23,18.20
2014,09,15,10,24,18.30
2014,09,15,10,25,18.40
2014,09,15,10,26,18.50
2014,09,15,10,27,18.60
2014,09,15,10,28,18.70
2014,09,15,10,29,18.80
2014,09,15,10,30,18.90
2014,09,15,10,31,19.00
2014,09,15,10,32,19.10
2014,09,15,10,33,19.20
2014,09,15,10,34,19.20
2014,09,15,10,35,19.30
2014,09,15,10,36,19.40
2014,09,15,10,37,19.40
2014,09,15,10,38,19.50
2014,09,15,10,39,19.50
2014,09,15,10,40,19.60
2014,09,15,10,41,19.70
2014,09,15,10,42,19.70
2014,09,15,10,43,19.70
2014,09,15,10,44,19.70
2014,09,15,10,45,19.70
2014,09,15,10,46,19.80
2014,09,15,10,47,19.80
2014,09,15,10,48,19.80
2014,09,15,10,49,19.80
2014,09,15,10,50,19.90
2014,09,15,10,51,20.00
2014,09,15,10,52,20.00
2014,09,15,10,53,20.10
2014,09,15,10,54,20.20
2014,09,15,10,55,20.20
2014,09,15,10,56,20.30
2014,09,15,10,57,20.30
2014,09,15,10,58,20.40
2014,09,15,10,59,20.50
2014,09,15,11,00,20.60
2014,09,15,11,01,20.70
2014,09,15,11,02,20.80
2014,09,15,11,03,20.90
2014,09,15,11,04,20.90
2014,09,15,11,05,21.00
2014,09,15,11,06,21.00
2014,09,15,11,07,21.10
2014,09,15,11,08,21.10
2014,09,15,11,09,21.20
2014,09,15,11,10,21.20
2014,09,15,11,11,21.30
2014,09,15,11,12,21.30
2014,09,15,11,13,21.40
2014,09,15,11,14,21.50
2014,09,15,11,15,21.60
2014,09,15,11,16,21.70
2014,09,15,11,17,21.70
2014,09,15,11,18,21.80
2014,09,15,11,19,21.80
2014,09,15,11,20,21.80
2014,09,15,11,21,21.80
2014,09,15,11,22,21.80
2014,09,15,11,23,21.80
2014,09,15,11,24,21.80
2014,09,15,11,25,21.90
2014,09,15,11,26,21.90
2014,09,15,11,27,21.90
2014,09,15,11,28,21.90
2014,09,15,11,29,21.80
2014,09,15,11,30,21.80
2014,09,15,11,31,21.80
2014,09,15,11,32,21.90
2014,09,15,11,33,21.90
2014,09,15,11,34,22.00
2014,09,15,11,35,22.00
2014,09,15,11,36,22.10
2014,09,15,11,37,22.10
2014,09,15,11,38,22.10
2014,09,15,11,39,22.10
2014,09,15,11,40,22.10
2014,09,15,11,41,22.10
2014,09,15,11,42,22.10
2014,09,15,11,43,22.20
2014,09,15,11,44,22.20
2014,09,15,11,45,22.30
2014,09,15,11,46,22.30
2014,09,15,11,47,22.30
2014,09,15,11,48,22.30
2014,09,15,11,49,22.30
2014,09,15,11,50,22.30
2014,09,15,11,51,22.30
2014,09,15,11,52,22.40
2014,09,15,11,53,22.40
2014,09,15,11,54,22.40
2014,09,15,11,55,22.40
2014,09,15,11,56,22.40
2014,09,15,11,57,22.40
2014,09,15,11,58,22.40
2014,09,15,11,59,22.40
2014,09,15,12,00,22.50
2014,09,15,12,01,22.50
2014,09,15,12,02,22.50
2014,09,15,12,03,22.50
2014,09,15,12,04,22.50
2014,09,15,12,05,22.60
2014,09,15,12,06,22.60
2014,09,15,12,07,22.70
2014,09,15,12,08,22.70
2014,09,15,12,09,22.70
2014,09,15,12,10,22.70
2014,09,15,12,11,22.70
2014,09,15,12,12,22.70
2014,09,15,12,13,22.70
2014,09,15,12,14,22.70
2014,09,15,12,15,22.70
2014,09,15,12,16,22.80
2014,09,15,12,17,22.80
2014,09,15,12,18,22.80
2014,09,15,12,19,22.90
2014,09,15,12,20,22.90
2014,09,15,12,21,22.90
2014,09,15,12,22,22.90
2014,09,15,12,23,23.00
2014,09,15,12,24,23.00
2014,09,15,12,25,23.00
2014,09,15,12,26,23.00
2014,09,15,12,27,23.00
2014,09,15,12,28,23.00
2014,09,15,12,29,23.00
2014,09,15,12,30,23.00
2014,09,15,12,31,23.10
2014,09,15,12,32,23.10
2014,09,15,12,33,23.20
2014,09,15,12,34,23.20
2014,09,15,12,35,23.20
2014,09,15,12,36,23.20
2014,09,15,12,37,23.30
2014,09,15,12,38,23.30
2014,09,15,12,39,23.30
2014,09,15,12,40,23.30
2014,09,15,12,41,23.30
2014,09,15,12,42,23.40
2014,09,15,12,43,23.40
2014,09,15,12,44,23.40
2014,09,15,12,45,23.40
2014,09,15,12,46,23.40
2014,09,15,12,47,23.40
2014,09,15,12,48,23.50
2014,09,15,12,49,23.50
2014,09,15,12,50,23.50
2014,09,15,12,51,23.50
2014,09,15,12,52,23.50
2014,09,15,12,53,23.50
2014,09,15,12,54,23.50
2014,09,15,12,55,23.50
2014,09,15,12,56,23.50
2014,09,15,12,57,23.50
2014,09,15,12,58,23.40
2014,09,15,12,59,23.40
2014,09,15,13,00,23.40
2014,09,15,13,01,23.40
2014,09,15,13,02,23.40
2014,09,15,13,03,23.50
2014,09,15,13,04,23.60
2014,09,15,13,05,23.60
2014,09,15,13,06,23.70
2014,09,15,13,07,23.70
2014,09,15,13,08,23.80
2014,09,15,13,09,23.80
2014,09,15,13,10,23.80
2014,09,15,13,11,23.80
2014,09,15,13,12,23.80
2014,09,15,13,13,23.80
2014,09,15,13,14,23.80
2014,09,15,13,15,23.80
2014,09,15,13,16,23.80
2014,09,15,13,17,23.80
2014,09,15,13,18,23.80
2014,09,15,13,19,23.80
2014,09,15,13,20,23.80
2014,09,15,13,21,23.80
2014,09,15,13,22,23.90
2014,09,15,13,23,23.90
2014,09,15,13,24,24.00
2014,09,15,13,25,24.00
2014,09,15,13,26,24.10
2014,09,15,13,27,24.10
2014,09,15,13,28,24.20
2014,09,15,13,29,24.30
2014,09,15,13,30,24.30
2014,09,15,13,31,24.40
2014,09,15,13,32,24.40
2014,09,15,13,33,24.50
2014,09,15,13,34,24.50
2014,09,15,13,35,24.40
2014,09,15,13,36,24.40
2014,09,15,13,37,24.40
2014,09,15,13,38,24.40
2014,09,15,13,39,24.40
2014,09,15,13,40,24.40
2014,09,15,13,41,24.40
2014,09,15,13,42,24.40
2014,09,15,13,43,24.50
2014,09,15,13,44,24.60
2014,09,15,13,45,24.60
2014,09,15,13,46,24.60
2014,09,15,13,47,24.60
2014,09,15,13,48,24.60
2014,09,15,13,49,24.60
2014,09,15,13,50,24.60
2014,09,15,13,51,24.50
2014,09,15,13,52,24.60
2014,09,15,13,53,24.60
2014,09,15,13,54,24.60
2014,09,15,13,55,24.60
2014,09,15,13,56,24.60
2014,09,15,13,57,24.60
2014,09,15,13,58,24.60
2014,09,15,13,59,24.60
2014,09,15,14,00,24.60
2014,09,15,14,01,24.60
2014,09,15,14,02,24.70
2014,09,15,14,03,24.60
2014,09,15,14,04,24.70
2014,09,15,14,05,24.70
2014,09,15,14,06,24.70
2014,09,15,14,07,24.80
2014,09,15,14,08,24.80
2014,09,15,14,09,24.80
2014,09,15,14,10,24.80
2014,09,15,14,11,24.80
2014,09,15,14,12,24.90
2014,09,15,14,13,24.90
2014,09,15,14,14,25.00
2014,09,15,14,15,25.00
2014,09,15,14,16,25.00
2014,09,15,14,17,25.10
2014,09,15,14,18,25.10
2014,09,15,14,19,25.10
2014,09,15,14,20,25.10
2014,09,15,14,21,25.10
2014,09,15,14,22,25.10
2014,09,15,14,23,25.00
2014,09,15,14,24,24.90
2014,09,15,14,25,24.90
2014,09,15,14,26,24.90
2014,09,15,14,27,24.90
2014,09,15,14,28,24.90
2014,09,15,14,29,24.90
2014,09,15,14,30,25.00
2014,09,15,14,31,25.10
2014,09,15,14,32,25.10
2014,09,15,14,33,25.10
2014,09,15,14,34,25.10
2014,09,15,14,35,25.10
2014,09,15,14,36,25.10
2014,09,15,14,37,25.10
2014,09,15,14,38,25.10
2014,09,15,14,39,25.00
2014,09,15,14,40,25.00
2014,09,15,14,41,25.00
2014,09,15,14,42,24.90
2014,09,15,14,43,25.00
2014,09,15,14,44,25.00
2014,09,15,14,45,25.10
2014,09,15,14,46,25.10
2014,09,15,14,47,25.20
2014,09,15,14,48,25.20
2014,09,15,14,49,25.30
2014,09,15,14,50,25.30
2014,09,15,14,51,25.30
2014,09,15,14,52,25.30
2014,09,15,14,53,25.40
2014,09,15,14,54,25.40
2014,09,15,14,55,25.50
2014,09,15,14,56,25.60
2014,09,15,14,57,25.60
2014,09,15,14,58,25.60
2014,09,15,14,59,25.60
2014,09,15,15,00,25.60
2014,09,15,15,01,25.50
2014,09,15,15,02,25.40
2014,09,15,15,03,25.40
2014,09,15,15,04,25.40
2014,09,15,15,05,25.30
2014,09,15,15,06,25.30
2014,09,15,15,07,25.20
2014,09,15,15,08,25.10
2014,09,15,15,09,25.10
2014,09,15,15,10,25.10
2014,09,15,15,11,25.00
2014,09,15,15,12,25.00
2014,09,15,15,13,25.10
2014,09,15,15,14,25.10
2014,09,15,15,15,25.10
2014,09,15,15,16,25.10
2014,09,15,15,17,25.10
2014,09,15,15,18,25.10
2014,09,15,15,19,25.10
2014,09,15,15,20,25.10
2014,09,15,15,21,25.10
2014,09,15,15,22,25.10
2014,09,15,15,23,25.10
2014,09,15,15,24,25.10
2014,09,15,15,25,25.00
2014,09,15,15,26,24.90
2014,09,15,15,27,24.90
2014,09,15,15,28,24.90
2014,09,15,15,29,24.80
2014,09,15,15,30,24.80
2014,09,15,15,31,24.80
2014,09,15,15,32,24.90
2014,09,15,15,33,24.90
2014,09,15,15,34,24.90
2014,09,15,15,35,24.90
2014,09,15,15,36,24.90
2014,09,15,15,37,24.90
2014,09,15,15,38,24.90
2014,09,15,15,39,24.90
2014,09,15,15,40,24.90
2014,09,15,15,41,24.90
2014,09,15,15,42,24.90
2014,09,15,15,43,24.90
2014,09,15,15,44,24.90
2014,09,15,15,45,24.90
2014,09,15,15,46,24.90
2014,09,15,15,47,24.90
2014,09,15,15,48,25.00
2014,09,15,15,49,25.10
2014,09,15,15,50,25.10
2014,09,15,15,51,25.10
2014,09,15,15,52,25.20
2014,09,15,15,53,25.20
2014,09,15,15,54,25.30
2014,09,15,15,55,25.40
2014,09,15,15,56,25.40
2014,09,15,15,57,25.50
2014,09,15,15,58,25.50
2014,09,15,15,59,25.60
2014,09,15,16,00,25.70
2014,09,15,16,01,25.70
2014,09,15,16,02,25.70
2014,09,15,16,03,25.60
2014,09,15,16,04,25.60
2014,09,15,16,05,25.60
2014,09,15,16,06,25.60
2014,09,15,16,07,25.60
2014,09,15,16,08,25.60
2014,09,15,16,09,25.60
2014,09,15,16,10,25.60
2014,09,15,16,11,25.60
2014,09,15,16,12,25.60
2014,09,15,16,13,25.60
2014,09,15,16,14,25.60
2014,09,15,16,15,25.70
2014,09,15,16,16,25.60
2014,09,15,16,17,25.60
2014,09,15,16,18,25.60
2014,09,15,16,19,25.50
2014,09,15,16,20,25.40
2014,09,15,16,21,25.40
2014,09,15,16,22,25.40
2014,09,15,16,23,25.40
2014,09,15,16,24,25.40
2014,09,15,16,25,25.40
2014,09,15,16,26,25.40
2014,09,15,16,27,25.40
2014,09,15,16,28,25.40
2014,09,15,16,29,25.40
2014,09,15,16,30,25.30
2014,09,15,16,31,25.30
2014,09,15,16,32,25.30
2014,09,15,16,33,25.30
2014,09,15,16,34,25.30
2014,09,15,16,35,25.40
2014,09,15,16,36,25.40
2014,09,15,16,37,25.40
2014,09,15,16,38,25.40
2014,09,15,16,39,25.40
2014,09,15,16,40,25.40
2014,09,15,16,41,25.40
2014,09,15,16,42,25.40
2014,09,15,16,43,25.40
2014,09,15,16,44,25.40
2014,09,15,16,45,25.40
2014,09,15,16,46,25.40
2014,09,15,16,47,25.40
2014,09,15,16,48,25.40
2014,09,15,16,49,25.40
2014,09,15,16,50,25.40
2014,09,15,16,51,25.40
2014,09,15,16,52,25.40
2014,09,15,16,53,25.40
2014,09,15,16,54,25.30
2014,09,15,16,55,25.30
2014,09,15,16,56,25.30
2014,09,15,16,57,25.30
2014,09,15,16,58,25.20
2014,09,15,16,59,25.20
2014,09,15,17,00,25.20
2014,09,15,17,01,25.20
2014,09,15,17,02,25.20
2014,09,15,17,03,25.30
2014,09,15,17,04,25.30
2014,09,15,17,05,25.30
2014,09,15,17,06,25.30
2014,09,15,17,07,25.30
2014,09,15,17,08,25.30
2014,09,15,17,09,25.30
2014,09,15,17,10,25.30
2014,09,15,17,11,25.30
2014,09,15,17,12,25.30
2014,09,15,17,13,25.20
2014,09,15,17,14,25.20
2014,09,15,17,15,25.20
2014,09,15,17,16,25.20
2014,09,15,17,17,25.20
2014,09,15,17,18,25.20
2014,09,15,17,19,25.20
2014,09,15,17,20,25.20
2014,09,15,17,21,25.10
2014,09,15,17,22,25.10
2014,09,15,17,23,25.10
2014,09,15,17,24,25.10
2014,09,15,17,25,25.10
2014,09,15,17,26,25.00
2014,09,15,17,27,25.00
2014,09,15,17,28,24.90
2014,09,15,17,29,24.90
2014,09,15,17,30,24.90
2014,09,15,17,31,24.90
2014,09,15,17,32,24.80
2014,09,15,17,33,24.80
2014,09,15,17,34,24.80
2014,09,15,17,35,24.80